Location: Newark
(39.0622°N, 106.5590°E)
Time: 19:02:05
(UTC+00:00)

S-56A Canister/Altair - Pass Details

Date: 28 January 2020
Orbit: 633 x 2499 km, 38.9° (Epoch: 17 February)

Event Time Altitude Azimuth Distance (km) Brightness Sun altitude
Rises 13:10:43 0° 256° (WSW) 4,330 12.3 -35.3°
Reaches altitude 10° 13:14:07 10° 256° (WSW) 3,067 11.3 -35.9°
Enters shadow 13:18:51 41° 251° (WSW) 1,355 9.0 -36.8°
